User: anonymous   Login
Location: Caltech
(34.1382°N, 118.1253°W)
Time: 16:10:44
(UTC-07:00)
Language:

Cosmos 1025 Rocket - Orbit

View from above orbital plane
View from above orbital plane
View from above satellite
View from above satellite

Ground track
Ground track

The orbit data is extracted from the following two-line orbital elements,

1 10974U 78067B   16182.41281486  .00000097  00000-0  79377-5 0  9995
2 10974  82.4826 142.3415 0018991  70.8349 289.4921 14.87163899 55272
Epoch (UTC): 30 June 2016 09:54:27
Eccentricity: 0.0018991
inclination: 82.4826°
perigee height: 593 km
apogee height: 620 km
right ascension of ascending node: 142.3415°
argument of perigee: 70.8349°
revolutions per day: 14.87163899
mean anomaly at epoch: 289.4921°
orbit number at epoch: 5527

The dashed part of the orbit path shows where the satellite is in the earth's shadow,  

DLR